Williamsport, PA

2:52 PM EDT on September 24, 2017 (GMT -0400)
Williamsport Rgnl

Weather History for KIPT - May, 2013

Change the Weather History Date:

Thursday, May 16, 2013

  Actual Average Record
Temperature  
Mean Temperature 68 °F 60 °F  
Max Temperature 84 °F 72 °F 90 °F (1962)
Min Temperature 51 °F 48 °F 33 °F (1973)
Degree Days  
Heating Degree Days 0 6  
Month to date heating degree days 122 132  
Since 1 July heating degree days 5595 5887  
Cooling Degree Days 3 1  
Month to date cooling degree days 3 11  
Year to date cooling degree days 11 16  
Growing Degree Days 18 (Base 50)    
Moisture  
Dew Point 45 °F    
Average Humidity 57    
Maximum Humidity 96    
Minimum Humidity 18    
Precipitation  
Precipitation 0.00 in 0.12 in 2.34 in (2014)
Month to date precipitation 1.73 1.83  
Year to date precipitation 11.08 13.08  
Snow  
Snow 0.00 in 0.00 in 0.00 in (2002)
Month to date snowfall 0.0 0.0  
Since 1 July snowfall 32.7 36.0  
Snow Depth 0.00 in    
Sea Level Pressure  
Sea Level Pressure 29.80 in    
Wind  
Wind Speed 6 mph (WNW)    
Max Wind Speed 20 mph    
Max Gust Speed 29 mph    
Visibility 10 miles    
Events      
T = Trace of Precipitation, MM = Missing Value Source: NWS Daily Summary

Daily Weather History Graph

Daily Weather History Graph

Search for Another Location

Airport or City:

Trip Planner

Search our weather history database for the weather conditions in past years. The results will help you decide how hot, cold, wet, or windy it might be!

Date:

Astronomy

May. 16, 2013 Rise Set
Actual Time 5:48 AM EDT 8:20 PM EDT
Civil Twilight 5:16 AM EDT 8:52 PM EDT
Nautical Twilight 4:37 AM EDT 9:31 PM EDT
Astronomical Twilight 3:53 AM EDT 10:16 PM EDT
Moon 11:20 AM EDT (5/16) 12:39 AM EDT (5/16)
Length of Visible Light 15h 35m
Length of Day
14h 32m
Waxing Crescent, 35% of the Moon is Illuminated
May 16
Waxing Crescent
May 18
First Quarter
May 25
Full
May 31
Last Quarter
Jun 8
New

Hourly Weather History & Observations

Time (EDT) Temp. Dew Point Humidity Pressure Visibility Wind Dir Wind Speed Gust Speed Precip Events Conditions
12:54 AM 57.9 °F 55.0 °F 90% 29.76 in 10.0 mi Calm Calm - N/A   Scattered Clouds
1:54 AM 55.0 °F 52.0 °F 89% 29.75 in 9.0 mi Calm Calm - N/A   Clear
2:54 AM 55.0 °F 52.0 °F 89% 29.75 in 10.0 mi North 3.5 mph - N/A   Clear
3:22 AM 53.6 °F 50.0 °F 88% 29.76 in 10.0 mi West 3.5 mph - N/A   Partly Cloudy
3:54 AM 53.1 °F 51.1 °F 93% 29.75 in 10.0 mi Calm Calm - N/A   Clear
4:54 AM 52.0 °F 50.0 °F 93% 29.76 in 10.0 mi WNW 3.5 mph - N/A   Clear
5:54 AM 51.1 °F 48.9 °F 92% 29.78 in 10.0 mi Calm Calm - N/A   Clear
6:54 AM 54.0 °F 51.1 °F 90% 29.81 in 9.0 mi Calm Calm - N/A   Partly Cloudy
7:25 AM 55.4 °F 51.8 °F 88% 29.81 in 1.5 mi Calm Calm - N/A   Scattered Clouds
7:29 AM 55.4 °F 51.8 °F 88% 29.81 in 10.0 mi Calm Calm - N/A   Mostly Cloudy
7:54 AM 55.9 °F 51.1 °F 84% 29.81 in 10.0 mi Calm Calm - N/A   Scattered Clouds
8:54 AM 59.0 °F 53.1 °F 81% 29.82 in 10.0 mi Calm Calm - N/A   Clear
9:54 AM 64.9 °F 54.0 °F 68% 29.81 in 10.0 mi Calm Calm - N/A   Clear
10:54 AM 72.0 °F 51.1 °F 48% 29.81 in 10.0 mi West 3.5 mph - N/A   Clear
11:54 AM 75.9 °F 46.0 °F 35% 29.79 in 10.0 mi WSW 4.6 mph - N/A   Scattered Clouds
12:54 PM 79.0 °F 46.9 °F 32% 29.78 in 10.0 mi West 11.5 mph - N/A   Scattered Clouds
1:54 PM 80.1 °F 39.9 °F 24% 29.77 in 10.0 mi NW 15.0 mph 21.9 mph N/A   Scattered Clouds
2:54 PM 79.0 °F 37.9 °F 23% 29.76 in 10.0 mi WNW 10.4 mph - N/A   Scattered Clouds
3:54 PM 82.0 °F 35.1 °F 18% 29.75 in 10.0 mi WNW 8.1 mph 20.7 mph N/A   Clear
4:54 PM 80.1 °F 33.1 °F 18% 29.75 in 10.0 mi NW 17.3 mph 24.2 mph N/A   Scattered Clouds
5:54 PM 80.6 °F 33.8 °F 18% 29.77 in 10.0 mi WNW 12.7 mph 24.2 mph N/A   Clear
6:54 PM 79.0 °F 33.1 °F 19% 29.78 in 10.0 mi WNW 12.7 mph - N/A   Clear
7:54 PM 75.9 °F 34.0 °F 22% 29.81 in 10.0 mi NW 6.9 mph - N/A   Clear
8:54 PM 72.0 °F 35.1 °F 26% 29.84 in 10.0 mi West 6.9 mph - N/A   Clear
9:54 PM 63.0 °F 39.9 °F 43% 29.88 in 10.0 mi WSW 4.6 mph - N/A   Clear
10:54 PM 62.1 °F 41.0 °F 46% 29.91 in 10.0 mi WNW 8.1 mph - N/A   Clear
11:54 PM 63.0 °F 39.9 °F 43% 29.93 in 10.0 mi West 6.9 mph - N/A   Clear